COSMOS 2251 DEB, 36550

Orbit data source: Space-Track

COSMOS 2251 DEB, 36550 is space debris in LEO originally from a launch on Wed, 16 Jun 1993 UTC launched from the Plesetsk Missile And Space Complex (PKMTR). The debris from Iridium 33, an American commercial communications satellite, has been tracked extensively since its accidental collision with the defunct Russian satellite Cosmos 2251 in 2009. This event, occurring at high speed in low Earth orbit (LEO), generated thousands of pieces of space debris, significantly increasing the risk of further collisions. The Iridium 33 debris cloud has impacted space traffic management and orbital debris mitigation strategies, making it a subject of ongoing study in space situational awareness.

Loading next visibility...
Identifier
36550, 1993-036BDL
Orbit
LEO
Country
Flag of CISCIS
Related business
Manufacturer
Unknown
Mission
Spacecraft
Bus & Motor
Unknown
Mass
Unknown
Launch date (UTC)
1993-06-16 (32 years ago)
Launch vehicle
Unknown
Launch site
Plesetsk Missile And Space Complex (PKMTR)
Object type
Payload
Rocket body
Debris
Shape & HBR
Unknown shape, 0.1 m
Radar Cross Section
Small (<0.1 m²)

Expand to show TLE details & history
Last TLE update: 1 day ago

TLE from 1 day ago
0 COSMOS 2251 DEB
1 36550U 93036BDL 25304.15713215  .00002865  00000-0  11495-2 0  9992
2 36550  74.0434 269.7546 0079392 329.1992  30.4509 14.26977835839886
Epoch: 2025-10-31T03:46Z
TLE epoch observation values (Epoch: 2025-10-31T03:46:16.217Z)
Latitude
-0.00002°
Longitude
173.48143°
Altitude
755.42 km
Speed
7.502 km/s
True Right ascension
17h 59m 01s
True Declination
0° 00' 00"
Sunlit
Object was in daylight at epoch
Visualization orbit readout
Latitude
Unknown
Longitude
Unknown
Altitude
Unknown
Speed
Unknown
Apparent Right ascension
Unknown
Apparent Declination
Unknown
Sunlit
N/A
Visualization observer readout
Local Sidereal Time
01:10:21
Azimuth
Unknown
Elevation
Unknown
Doppler factor
Unknown
Orbital elements
Apogee altitude
856.468 km
Perigee altitude
742.499 km
Semi-major axis
7,177.621 km
Eccentricity
0.00794
Inclination
74.0434°
RAAN
269.7546°
Arg. of periapsis
329.1992°
True anomaly
30.91594°
Mean anomaly
30.4509°
Eccentric anomaly
30.68302°
Mean motion
3.56921 °/min
Orbital period
100.86 mins
BSTAR
0.0011495
Loading maneuver chart data...
Computing Atmospheric mass density...

Documentation

Showing up to 5 results
|